Raton, NM

11:09 AM MST on November 20, 2017 (GMT -0700)
Raton Municipal-Crews

Weather History for KRTN - February, 2014

Change the Weather History Date:

Tuesday, February 11, 2014

  Actual Average (KTAD) Record (KTAD)
Temperature  
Mean Temperature 31 °F -  
Max Temperature 41 °F 49 °F 77 °F (1951)
Min Temperature 21 °F 18 °F -10 °F (1981)
Degree Days  
Heating Degree Days 34    
Moisture  
Dew Point 23 °F    
Average Humidity 86    
Maximum Humidity 96    
Minimum Humidity 55    
Precipitation  
Precipitation 0.00 in - - ()
Sea Level Pressure  
Sea Level Pressure 30.10 in    
Wind  
Wind Speed 5 mph (SW)    
Max Wind Speed 10 mph    
Max Gust Speed -    
Visibility 6 miles    
Events Fog    
Averages and records for this station are not official NWS values.
T = Trace of Precipitation, MM = Missing Value Source: NWS Daily Summary

Daily Weather History Graph

Daily Weather History Graph

Search for Another Location

Airport or City:

Trip Planner

Search our weather history database for the weather conditions in past years. The results will help you decide how hot, cold, wet, or windy it might be!

Date:

Astronomy

Feb. 11, 2014 Rise Set
Actual Time 6:50 AM MST 5:34 PM MST
Civil Twilight 6:23 AM MST 6:01 PM MST
Nautical Twilight 5:53 AM MST 6:31 PM MST
Astronomical Twilight 5:23 AM MST 7:01 PM MST
Moon 2:58 PM MST (2/11) 4:27 AM MST (2/11)
Length of Visible Light 11h 37m
Length of Day
10h 43m
Waxing Gibbous, 91% of the Moon is Illuminated
Feb 11
Waxing Gibbous
Feb 14
Full
Feb 22
Last Quarter
Mar 1
New
Mar 8
First Quarter

Hourly Weather History & Observations

Time (MST) Temp. Windchill Dew Point Humidity Pressure Visibility Wind Dir Wind Speed Gust Speed Precip Events Conditions
12:53 AM 23.0 °F - 19.9 °F 88% 30.14 in 9.0 mi Calm Calm - N/A   Overcast
1:53 AM 23.0 °F 14.7 °F 21.0 °F 92% 30.14 in 8.0 mi WSW 6.9 mph - N/A   Overcast
2:28 AM 23.0 °F 14.7 °F 21.0 °F 92% 30.09 in 7.0 mi SSW 6.9 mph - N/A   Overcast
2:51 AM 21.2 °F 11.7 °F 19.4 °F 93% 30.09 in 7.0 mi SSW 8.1 mph - N/A   Mostly Cloudy
2:53 AM 21.9 °F 12.5 °F 19.9 °F 92% 30.13 in 6.0 mi SW 8.1 mph - N/A   Mostly Cloudy
3:02 AM 21.9 °F 12.5 °F 19.9 °F 92% 30.09 in 6.0 mi SSW 8.1 mph - N/A   Mostly Cloudy
3:09 AM 21.9 °F 11.0 °F 19.9 °F 92% 30.09 in 6.0 mi SSW 10.4 mph - N/A   Overcast
3:53 AM 21.9 °F 11.0 °F 21.0 °F 96% 30.13 in 5.0 mi SSW 10.4 mph - N/A   Overcast
4:27 AM 21.9 °F 13.4 °F 21.0 °F 96% 30.10 in 2.0 mi SW 6.9 mph - N/A   Overcast
4:53 AM 21.9 °F 14.5 °F 21.0 °F 96% 30.14 in 3.0 mi SSW 5.8 mph - N/A   Overcast
5:08 AM 21.9 °F 15.7 °F 21.0 °F 96% 30.11 in 2.5 mi SSW 4.6 mph - N/A   Overcast
5:21 AM 21.9 °F 15.7 °F 21.0 °F 96% 30.11 in 1.2 mi SSW 4.6 mph - N/A   Overcast
5:53 AM 21.9 °F 17.2 °F 21.0 °F 96% 30.14 in 0.8 mi SW 3.5 mph - N/A   Mist
6:53 AM 21.9 °F - 21.0 °F 96% 30.17 in 0.2 mi Calm Calm - N/A Fog Light Freezing Fog
7:53 AM 21.9 °F - 21.0 °F 96% 30.21 in 0.2 mi Calm Calm - N/A Fog Light Freezing Fog
8:53 AM 23.0 °F 15.8 °F 21.9 °F 96% 30.22 in 0.2 mi WSW 5.8 mph - N/A Fog Light Freezing Fog
9:53 AM 24.1 °F 18.2 °F 23.0 °F 96% 30.22 in 0.2 mi SSW 4.6 mph - N/A Fog Light Freezing Fog
10:53 AM 25.0 °F - 23.0 °F 92% 30.21 in 0.5 mi Calm Calm - N/A Fog Light Freezing Fog
11:17 AM 26.1 °F 21.9 °F 24.1 °F 92% 30.10 in 1.2 mi SSE 3.5 mph - N/A   Overcast
11:34 AM 27.0 °F 23.0 °F 24.1 °F 89% 30.09 in 2.5 mi West 3.5 mph - N/A   Overcast
11:41 AM 27.0 °F 23.0 °F 25.0 °F 92% 30.09 in 4.0 mi SSW 3.5 mph - N/A   Overcast
11:53 AM 26.1 °F - 24.1 °F 92% 30.16 in 7.0 mi Calm Calm - N/A   Overcast
12:10 PM 28.0 °F 24.2 °F 25.0 °F 88% 30.07 in 9.0 mi SSW 3.5 mph - N/A   Overcast
12:29 PM 28.0 °F 24.2 °F 25.0 °F 88% 30.05 in 10.0 mi Variable 3.5 mph - N/A   Overcast
12:53 PM 28.9 °F - 25.0 °F 85% 30.10 in 10.0 mi Calm Calm - N/A   Overcast
1:16 PM 30.9 °F 27.5 °F 26.1 °F 82% 30.02 in 10.0 mi Variable 3.5 mph - N/A   Scattered Clouds
1:53 PM 36.0 °F 31.1 °F 25.0 °F 64% 30.03 in 10.0 mi South 5.8 mph - N/A   Clear
2:53 PM 37.0 °F 34.5 °F 26.1 °F 65% 30.01 in 10.0 mi NW 3.5 mph - N/A   Clear
3:53 PM 39.0 °F - 26.1 °F 60% 29.96 in 10.0 mi Calm Calm - N/A   Clear
4:53 PM 41.0 °F 38.0 °F 26.1 °F 55% 29.95 in 10.0 mi NNE 4.6 mph - N/A   Clear
5:53 PM 35.1 °F 29.3 °F 25.0 °F 67% 30.01 in 10.0 mi NE 6.9 mph - N/A   Clear
6:53 PM 32.0 °F 25.6 °F 24.1 °F 73% 30.05 in 10.0 mi NNE 6.9 mph - N/A   Clear
7:53 PM 28.9 °F 21.1 °F 21.9 °F 75% 30.06 in 10.0 mi NNW 8.1 mph - N/A   Clear
8:53 PM 28.0 °F 21.7 °F 21.9 °F 78% 30.06 in 10.0 mi NNW 5.8 mph - N/A   Clear
9:53 PM 27.0 °F 20.5 °F 21.9 °F 81% 30.09 in 10.0 mi Variable 5.8 mph - N/A   Clear
10:53 PM 25.0 °F 15.5 °F 21.0 °F 85% 30.11 in 10.0 mi NE 9.2 mph - N/A   Clear
11:53 PM 26.1 °F 16.8 °F 19.0 °F 75% 30.12 in 10.0 mi NNE 9.2 mph - N/A   Clear